Home   Weather   Hannover   Past weeks

Flag for Germany Past Weather in Hannover, Lower Saxony, Germany — Yesterday and Last 2 Weeks

Now
55 °F

Passing clouds.


Feels Like: 55 °F
Forecast: 47 / 63 °F
Wind: 3 mph from East

Location: Hannover

Current Time: May 23, 2017 at 7:18:48 am

Latest Report: May 23, 2017 at 6:50 am


Visibility: N/A

Pressure: 29.98 "Hg

Humidity: 82%

Dew Point: 50 °F

Location of HannoverLocation

Past Weather in Hannover — Graph

°F

Hannover Temperature Yesterday

Maximum temperature yesterday: 72 °F (at 4:50 pm)
Minimum temperature yesterday: 45 °F (at 3:50 am)
Average temperature yesterday: 61 °F

High & Low Weather Summary for the Past Weeks

 TemperatureHumidityPressure
High81 °F (May 17, 1:50 pm)100% (May 8, 2:20 pm)30.39 "Hg (May 8, 2:20 pm)
Low30 °F (May 9, 6:20 am)33% (May 15, 6:20 pm)29.50 "Hg (May 11, 6:20 pm)
Average58 °F70%30.01 "Hg
* Reported May 8 6:20 am — May 23 6:20 am, Hannover. Weather by CustomWeather, © 2017

Note: Actual official high and low records may vary slightly from our data, if they occured in-between our weather recording intervals... More about our weather records

Advertising

Hannover Weather History for the Previous 24 Hours

Scroll right to see more
 ConditionsComfort  
Time TempWeatherWind HumidityBarometerVisibility
6:20 am
Tue, May 23
55 °FSunny.2 mph82%29.98 "Hg10 mi
5:50 am55 °FSunny.2 mph77%29.98 "Hg10 mi
5:20 am54 °FPassing clouds.3 mph82%29.98 "HgN/A
4:50 am55 °FPassing clouds.5 mph77%29.98 "HgN/A
4:20 am55 °FPassing clouds.3 mph77%29.98 "HgN/A
3:50 am55 °FClear.1 mph77%29.98 "Hg10 mi
3:20 am54 °FClear.2 mph82%30.01 "Hg10 mi
2:50 am54 °FClear.3 mph82%30.01 "Hg10 mi
2:20 am54 °FClear.5 mph82%30.01 "Hg10 mi
1:50 am55 °FClear.3 mph77%30.01 "Hg10 mi
1:20 am55 °FClear.5 mph77%30.04 "Hg10 mi
12:50 am55 °FClear.5 mph77%30.04 "Hg10 mi
12:20 am55 °FClear.5 mph77%30.04 "Hg10 mi
11:50 pm
Mon, May 22
57 °FClear.2 mph72%30.04 "Hg10 mi
11:20 pm59 °FClear.3 mph68%30.04 "Hg10 mi
10:50 pm61 °FClear.5 mph63%30.04 "Hg10 mi
10:20 pm61 °FClear.5 mph59%30.04 "Hg10 mi
9:50 pm61 °FClear.5 mph63%30.04 "Hg10 mi
9:20 pm66 °FClear.7 mph49%30.04 "Hg10 mi
8:50 pm64 °FSunny.6 mph56%30.04 "Hg10 mi
8:20 pm68 °FSunny.8 mph46%30.04 "Hg10 mi
7:50 pm70 °FSunny.7 mph43%30.04 "Hg10 mi
7:20 pm70 °FPassing clouds.9 mph43%30.04 "HgN/A
6:50 pm72 °FPassing clouds.5 mph44%30.07 "HgN/A
6:20 pm72 °FSunny.2 mph41%30.07 "Hg10 mi
5:50 pm70 °FSunny.8 mph40%30.07 "Hg10 mi
5:20 pm72 °FSunny.5 mph41%30.07 "Hg10 mi
4:50 pm72 °FPassing clouds.7 mph44%30.09 "HgN/A
4:20 pm70 °FSunny.6 mph43%30.09 "Hg10 mi
3:50 pm70 °FPassing clouds.7 mph43%30.09 "HgN/A
3:20 pm70 °FPassing clouds.5 mph46%30.12 "HgN/A
2:50 pm68 °FPassing clouds.5 mph49%30.12 "HgN/A
2:20 pm70 °FPassing clouds.5 mph46%30.12 "HgN/A
1:50 pm68 °FSunny.5 mph46%30.12 "Hg10 mi
1:20 pm68 °FSunny.2 mph49%30.12 "Hg10 mi
12:50 pm68 °FPassing clouds.6 mph46%30.15 "HgN/A
12:20 pm70 °FSunny.5 mph43%30.15 "Hg10 mi
11:50 am66 °FPassing clouds.7 mph46%30.15 "HgN/A
11:20 am66 °FPassing clouds.8 mph46%30.15 "HgN/A
10:50 am68 °FPassing clouds.9 mph43%30.18 "HgN/A
10:20 am68 °FScattered clouds.7 mph46%30.18 "HgN/A
9:50 am66 °FPassing clouds.5 mph49%30.18 "HgN/A
9:20 am64 °FPassing clouds.6 mph52%30.18 "HgN/A
8:50 am63 °FPassing clouds.5 mph56%30.18 "HgN/A
8:20 am59 °FPassing clouds.3 mph68%30.18 "HgN/A
7:50 am57 °FPassing clouds.3 mph77%30.18 "HgN/A
7:20 am54 °FSunny.3 mph82%30.18 "Hg10 mi
Weather by CustomWeather, © 2017

See weather overviewHow to use our weather pages